EZY64Q EGGP-EGAA

Flight info

Callsign EZY64Q
Flight time N/A
Altitude 24000
Route WAL M146 IPSET P6 BELZU
Aircraft A320/M-SDE3FGHIRWY/LB1

Departure

Time 2026-05-05 19:20
Airport Liverpool John Lennon Airport (EGGP)

Arrival

Time N/A
Airport Belfast International Airport (EGAA)
Time Latitude Longitude Altitude Speed Heading
2026-05-05 19:03 53.33632 -2.85190 85 ft 0 kts 265°
2026-05-05 19:09 53.33632 -2.85186 85 ft 2 kts 265°
2026-05-05 19:09 53.33634 -2.85144 85 ft 4 kts 265°
2026-05-05 19:09 53.33635 -2.85108 85 ft 4 kts 264°
2026-05-05 19:09 53.33640 -2.85075 90 ft 4 kts 196°
2026-05-05 19:10 53.33663 -2.85075 85 ft 4 kts 175°
2026-05-05 19:10 53.33669 -2.85076 85 ft 0 kts 175°
2026-05-05 19:15 53.33666 -2.85075 85 ft 2 kts 175°
2026-05-05 19:16 53.33655 -2.85074 89 ft 2 kts 175°
2026-05-05 19:16 53.33625 -2.85070 89 ft 7 kts 175°
2026-05-05 19:16 53.33560 -2.85062 85 ft 12 kts 174°
2026-05-05 19:16 53.33531 -2.84929 85 ft 16 kts 85°
2026-05-05 19:17 53.33541 -2.84708 81 ft 23 kts 85°
2026-05-05 19:17 53.33556 -2.84410 68 ft 28 kts 85°
2026-05-05 19:17 53.33571 -2.84078 70 ft 29 kts 85°
2026-05-05 19:17 53.33587 -2.83739 82 ft 26 kts 86°
2026-05-05 19:18 53.33596 -2.83517 89 ft 15 kts 85°
2026-05-05 19:18 53.33593 -2.83378 89 ft 10 kts 110°
2026-05-05 19:18 53.33549 -2.83307 89 ft 9 kts 156°
2026-05-05 19:18 53.33479 -2.83292 83 ft 13 kts 175°
2026-05-05 19:19 53.33436 -2.83395 83 ft 13 kts 265°
2026-05-05 19:19 53.33423 -2.83710 73 ft 58 kts 265°
2026-05-05 19:19 53.33373 -2.84775 77 ft 123 kts 266°
2026-05-05 19:19 53.33302 -2.86451 339 ft 151 kts 268°
2026-05-05 19:20 53.33215 -2.88192 1098 ft 152 kts 270°
2026-05-05 19:20 53.33121 -2.89984 1662 ft 162 kts 271°
2026-05-05 19:20 53.33088 -2.91988 1978 ft 182 kts 281°
2026-05-05 19:20 53.33507 -2.94088 2253 ft 201 kts 299°
2026-05-05 19:21 53.34168 -2.96312 2618 ft 225 kts 300°
2026-05-05 19:21 53.34903 -2.98780 3074 ft 249 kts 300°
2026-05-05 19:21 53.35691 -3.01443 3751 ft 260 kts 299°
2026-05-05 19:21 53.36491 -3.04176 4414 ft 263 kts 298°
2026-05-05 19:22 53.37297 -3.06941 5084 ft 266 kts 298°
2026-05-05 19:22 53.38120 -3.09756 5735 ft 273 kts 297°
2026-05-05 19:22 53.38978 -3.12640 6402 ft 279 kts 301°
2026-05-05 19:22 53.40193 -3.15175 7024 ft 280 kts 316°
2026-05-05 19:23 53.41551 -3.17491 7648 ft 278 kts 315°
2026-05-05 19:23 53.42903 -3.19783 8288 ft 275 kts 316°
2026-05-05 19:23 53.44246 -3.22055 8937 ft 273 kts 315°
2026-05-05 19:23 53.45580 -3.24313 9605 ft 274 kts 315°
2026-05-05 19:24 53.46927 -3.26602 10249 ft 278 kts 314°
2026-05-05 19:24 53.48336 -3.29004 10587 ft 300 kts 314°
2026-05-05 19:24 53.49844 -3.31580 11024 ft 315 kts 314°
2026-05-05 19:24 53.51396 -3.34239 11723 ft 321 kts 314°
2026-05-05 19:25 53.52970 -3.36940 12488 ft 325 kts 314°
2026-05-05 19:25 53.54560 -3.39674 13252 ft 329 kts 314°
2026-05-05 19:25 53.56167 -3.42440 13991 ft 332 kts 314°
2026-05-05 19:25 53.57771 -3.45267 14636 ft 335 kts 309°
2026-05-05 19:26 53.59166 -3.48432 15278 ft 338 kts 304°
2026-05-05 19:26 53.60534 -3.51676 15919 ft 341 kts 304°
2026-05-05 19:26 53.61911 -3.54954 16580 ft 344 kts 304°
2026-05-05 19:26 53.63299 -3.58265 17237 ft 347 kts 304°
2026-05-05 19:27 53.64700 -3.61605 17886 ft 351 kts 304°
2026-05-05 19:27 53.66112 -3.64978 18490 ft 354 kts 304°
2026-05-05 19:27 53.67536 -3.68377 19050 ft 356 kts 304°
2026-05-05 19:27 53.68970 -3.71806 19617 ft 359 kts 304°
2026-05-05 19:28 53.70411 -3.75260 20194 ft 361 kts 304°
2026-05-05 19:28 53.71863 -3.78739 20747 ft 364 kts 304°
2026-05-05 19:28 53.73323 -3.82243 21273 ft 366 kts 304°
2026-05-05 19:28 53.74793 -3.85777 21798 ft 369 kts 303°
2026-05-05 19:29 53.76270 -3.89337 22311 ft 372 kts 303°
2026-05-05 19:29 53.77757 -3.92931 22808 ft 374 kts 303°
2026-05-05 19:29 53.79233 -3.96499 23335 ft 377 kts 303°
2026-05-05 19:29 53.80740 -4.00145 23772 ft 380 kts 303°
2026-05-05 19:30 53.82257 -4.03821 23991 ft 381 kts 303°
2026-05-05 19:30 53.83775 -4.07504 24037 ft 369 kts 303°
2026-05-05 19:30 53.85209 -4.10981 24041 ft 362 kts 303°
2026-05-05 19:30 53.86641 -4.14471 24043 ft 360 kts 303°
2026-05-05 19:31 53.88086 -4.18003 24042 ft 360 kts 303°
2026-05-05 19:31 53.89490 -4.21440 24046 ft 360 kts 303°
2026-05-05 19:31 53.90913 -4.24928 24047 ft 360 kts 303°
2026-05-05 19:31 53.92334 -4.28413 24060 ft 360 kts 303°
2026-05-05 19:32 53.93750 -4.31890 23762 ft 356 kts 303°
2026-05-05 19:32 53.95155 -4.35330 23288 ft 353 kts 303°
2026-05-05 19:32 53.96547 -4.38734 22791 ft 350 kts 303°
2026-05-05 19:32 53.97927 -4.42120 22294 ft 347 kts 303°
2026-05-05 19:33 53.99292 -4.45485 21818 ft 345 kts 303°
2026-05-05 19:33 54.00648 -4.48833 21338 ft 343 kts 303°
2026-05-05 19:33 54.02042 -4.52115 20876 ft 342 kts 308°
2026-05-05 19:33 54.03630 -4.55107 20417 ft 340 kts 311°
2026-05-05 19:34 54.05231 -4.58062 19962 ft 339 kts 311°
2026-05-05 19:34 54.06821 -4.61006 19515 ft 337 kts 311°
2026-05-05 19:34 54.08403 -4.63945 19070 ft 336 kts 311°
2026-05-05 19:35 54.11541 -4.69787 18186 ft 333 kts 311°
2026-05-05 19:35 54.13099 -4.72697 17701 ft 332 kts 311°
2026-05-05 19:35 54.14648 -4.75599 17217 ft 330 kts 311°
2026-05-05 19:35 54.16192 -4.78496 16743 ft 329 kts 311°
2026-05-05 19:36 54.17729 -4.81375 16274 ft 328 kts 311°
2026-05-05 19:36 54.19261 -4.84249 15807 ft 326 kts 311°
2026-05-05 19:36 54.20785 -4.87107 15355 ft 325 kts 311°
2026-05-05 19:36 54.22304 -4.89960 14901 ft 324 kts 311°
2026-05-05 19:37 54.23820 -4.92808 14462 ft 323 kts 311°
2026-05-05 19:37 54.25328 -4.95645 14025 ft 322 kts 311°
2026-05-05 19:37 54.26831 -4.98480 13559 ft 321 kts 311°
2026-05-05 19:37 54.28326 -5.01304 13075 ft 320 kts 311°
2026-05-05 19:38 54.29814 -5.04117 12636 ft 317 kts 311°
2026-05-05 19:38 54.31274 -5.06875 12365 ft 309 kts 311°
2026-05-05 19:38 54.32699 -5.09569 12105 ft 302 kts 311°
2026-05-05 19:38 54.34091 -5.12207 11851 ft 295 kts 311°
2026-05-05 19:39 54.35452 -5.14792 11589 ft 289 kts 311°
2026-05-05 19:39 54.36786 -5.17328 11339 ft 284 kts 311°
2026-05-05 19:39 54.38098 -5.19825 11128 ft 281 kts 311°
2026-05-05 19:39 54.39472 -5.22179 11053 ft 279 kts 323°
2026-05-05 19:40 54.41127 -5.23932 11057 ft 280 kts 328°
2026-05-05 19:40 54.42826 -5.25576 10821 ft 279 kts 329°
2026-05-05 19:40 54.44519 -5.27200 10575 ft 279 kts 329°
2026-05-05 19:40 54.46201 -5.28815 10328 ft 276 kts 329°
2026-05-05 19:41 54.47873 -5.30428 10084 ft 275 kts 329°
2026-05-05 19:41 54.49539 -5.32033 9834 ft 274 kts 329°
2026-05-05 19:41 54.51197 -5.33636 9553 ft 273 kts 329°
2026-05-05 19:41 54.52842 -5.35232 9288 ft 271 kts 329°
2026-05-05 19:42 54.53928 -5.36289 9114 ft 271 kts 329°
2026-05-05 19:42 54.55566 -5.37898 8848 ft 270 kts 329°
2026-05-05 19:42 54.57157 -5.39625 8584 ft 270 kts 319°
2026-05-05 19:42 54.58422 -5.43230 8236 ft 271 kts 282°
2026-05-05 19:43 54.58526 -5.46480 8076 ft 273 kts 270°
2026-05-05 19:43 54.58459 -5.49751 8065 ft 273 kts 269°
2026-05-05 19:43 54.58399 -5.51961 8067 ft 273 kts 269°
2026-05-05 19:43 54.58308 -5.55235 8067 ft 274 kts 269°
2026-05-05 19:44 54.58214 -5.58507 8066 ft 273 kts 269°
2026-05-05 19:44 54.58116 -5.61772 8067 ft 273 kts 269°
2026-05-05 19:44 54.58019 -5.64991 8081 ft 273 kts 269°
2026-05-05 19:44 54.57926 -5.68263 8081 ft 273 kts 269°
2026-05-05 19:45 54.57830 -5.71530 8083 ft 274 kts 268°
2026-05-05 19:45 54.57546 -5.74786 8084 ft 276 kts 260°
2026-05-05 19:45 54.57131 -5.78008 8085 ft 275 kts 258°
2026-05-05 19:45 54.56699 -5.81224 8083 ft 276 kts 259°
2026-05-05 19:46 54.56260 -5.84431 8082 ft 275 kts 259°
2026-05-05 19:46 54.55819 -5.87634 8084 ft 275 kts 258°
2026-05-05 19:46 54.55384 -5.90840 8084 ft 275 kts 259°
2026-05-05 19:46 54.54951 -5.94052 8084 ft 275 kts 259°
2026-05-05 19:47 54.54519 -5.97261 8084 ft 275 kts 259°
2026-05-05 19:47 54.54084 -6.00463 8083 ft 275 kts 258°
2026-05-05 19:47 54.53649 -6.03672 8083 ft 275 kts 259°
2026-05-05 19:47 54.53203 -6.06869 8082 ft 274 kts 258°
2026-05-05 19:48 54.52763 -6.10072 8083 ft 275 kts 258°
2026-05-05 19:48 54.52325 -6.13276 8068 ft 275 kts 258°
2026-05-05 19:48 54.51892 -6.16518 7616 ft 279 kts 259°
2026-05-05 19:48 54.51455 -6.19767 7161 ft 279 kts 259°
2026-05-05 19:49 54.51013 -6.23020 6712 ft 280 kts 259°
2026-05-05 19:49 54.50573 -6.26283 6248 ft 281 kts 259°
2026-05-05 19:49 54.50127 -6.29564 5779 ft 282 kts 258°
2026-05-05 19:49 54.49687 -6.32855 5304 ft 282 kts 258°
2026-05-05 19:50 54.49254 -6.36108 5020 ft 275 kts 258°
2026-05-05 19:50 54.48838 -6.39310 4556 ft 274 kts 259°
2026-05-05 19:50 54.48533 -6.42468 4085 ft 261 kts 272°
2026-05-05 19:50 54.48858 -6.45418 3684 ft 244 kts 295°
2026-05-05 19:51 54.49725 -6.47777 3424 ft 225 kts 316°
2026-05-05 19:51 54.50938 -6.49371 3194 ft 216 kts 335°
2026-05-05 19:51 54.52334 -6.50154 2983 ft 209 kts 353°
2026-05-05 19:51 54.53771 -6.50165 2775 ft 205 kts
2026-05-05 19:52 54.56702 -6.49797 2509 ft 204 kts
2026-05-05 19:52 54.57962 -6.49087 2509 ft 205 kts 35°
2026-05-05 19:52 54.58851 -6.47168 2514 ft 210 kts 62°
2026-05-05 19:53 54.59462 -6.44908 2515 ft 202 kts 61°
2026-05-05 19:53 54.60033 -6.42768 2506 ft 192 kts 62°
2026-05-05 19:53 54.60581 -6.40724 2440 ft 183 kts 62°
2026-05-05 19:53 54.61113 -6.38749 2139 ft 180 kts 60°
2026-05-05 19:54 54.61633 -6.36818 1880 ft 175 kts 60°
2026-05-05 19:54 54.62142 -6.34933 1641 ft 171 kts 60°
2026-05-05 19:54 54.62623 -6.33140 1412 ft 158 kts 61°
2026-05-05 19:54 54.63066 -6.31485 1213 ft 146 kts 60°
2026-05-05 19:55 54.63460 -6.29923 982 ft 141 kts 62°
2026-05-05 19:55 54.63883 -6.28430 915 ft 136 kts 57°
2026-05-05 19:55 54.64295 -6.26949 774 ft 138 kts 62°
2026-05-05 19:55 54.64702 -6.25459 589 ft 136 kts 56°
2026-05-05 19:56 54.65100 -6.23973 401 ft 135 kts 58°
2026-05-05 19:56 54.65489 -6.22532 274 ft 122 kts 58°
2026-05-05 19:56 54.65794 -6.21427 272 ft 78 kts 66°
2026-05-05 19:56 54.65975 -6.20744 272 ft 55 kts 65°